| time (UTC) | temp F | wind direction | speed knots | gust knots | rain 1hr in | rain 24hr in | rain mn in | humidity % | barometer mb |
| 20260506120623 | 68 | 215 | 5.2 | 18.2 | 0.00 | 0.00 | 0.00 | 78 | 1006.8 |
| 20260506115603 | 68 | 124 | 5.2 | 14.8 | 0.00 | 0.00 | 0.00 | 78 | 1006.9 |
| 20260506114615 | 68 | 157 | 6.1 | 14.8 | 0.00 | 0.00 | 0.00 | 79 | 1007.1 |
| 20260506113638 | 67 | 114 | 3.5 | 12.2 | 0.00 | 0.00 | 0.00 | 80 | 1006.9 |
| 20260506112648 | 67 | 111 | 3.5 | 16.5 | 0.00 | 0.00 | 0.00 | 81 | 1006.9 |
| 20260506111620 | 67 | 0 | 4.3 | 16.5 | 0.00 | 0.00 | 0.00 | 81 | 1006.9 |
| 20260506110619 | 66 | 0 | 2.6 | 13.0 | 0.00 | 0.00 | 0.00 | 82 | 1006.9 |
| 20260506105551 | 66 | 114 | 1.7 | 12.2 | 0.00 | 0.00 | 0.00 | 82 | 1006.7 |
| 20260506104612 | 66 | 0 | 4.3 | 12.2 | 0.00 | 0.00 | 0.00 | 83 | 1006.8 |
| 20260506103631 | 66 | 0 | 2.6 | 11.3 | 0.00 | 0.00 | 0.00 | 84 | 1006.8 |
| 20260506102558 | 65 | 0 | 3.5 | 11.3 | 0.00 | 0.00 | 0.00 | 85 | 1006.7 |
| 20260506101529 | 65 | 0 | 0.9 | 4.3 | 0.00 | 0.00 | 0.00 | 85 | 1006.8 |
| 20260506100503 | 64 | 135 | 0.9 | 4.3 | 0.00 | 0.00 | 0.00 | 85 | 1006.6 |
| 20260506095507 | 64 | 103 | 0.0 | 0.9 | 0.00 | 0.00 | 0.00 | 85 | 1006.6 |
| 20260506094448 | 64 | 0 | 0.0 | 5.2 | 0.00 | 0.00 | 0.00 | 85 | 1006.6 |
| 20260506093458 | 65 | 0 | 0.9 | 5.2 | 0.00 | 0.00 | 0.00 | 85 | 1006.6 |
| 20260506092516 | 65 | 0 | 0.0 | 5.2 | 0.00 | 0.00 | 0.00 | 84 | 1006.6 |
| 20260506091539 | 65 | 0 | 0.9 | 7.0 | 0.00 | 0.00 | 0.00 | 84 | 1006.6 |
| 20260506090519 | 65 | 0 | 0.0 | 0.0 | 0.00 | 0.00 | 0.00 | 83 | 1006.7 |
| 20260506085504 | 65 | 134 | 0.0 | 5.2 | 0.00 | 0.00 | 0.00 | 83 | 1006.8 |
| 20260506084455 | 65 | 0 | 0.0 | 0.9 | 0.00 | 0.00 | 0.00 | 82 | 1006.8 |
| 20260506083518 | 66 | 109 | 0.0 | 3.5 | 0.00 | 0.00 | 0.00 | 82 | 1006.9 |
| 20260506082449 | 66 | 0 | 0.0 | 0.0 | 0.00 | 0.00 | 0.00 | 81 | 1006.9 |
| 20260506080344 | 66 | 0 | 0.0 | 5.2 | 0.00 | 0.00 | 0.00 | 80 | 1006.8 |
| 20260506071209 | 68 | 133 | 0.9 | 7.0 | 0.00 | 0.00 | 0.00 | 77 | 1006.8 |
| 20260506070216 | 68 | 121 | 1.7 | 8.7 | 0.00 | 0.00 | 0.00 | 76 | 1006.9 |
| 20260506062301 | 68 | 0 | 0.9 | 5.2 | 0.00 | 0.00 | 0.00 | 74 | 1007.1 |
| 20260506061229 | 69 | 124 | 1.7 | 10.4 | 0.00 | 0.00 | 0.00 | 73 | 1007.0 |
| 20260506051038 | 70 | 0 | 1.7 | 7.8 | 0.00 | 0.00 | 0.00 | 70 | 1007.5 |
| 20260506045013 | 70 | 0 | 4.3 | 10.4 | 0.00 | 0.00 | 0.00 | 69 | 1007.4 |
| 20260506044022 | 70 | 0 | 2.6 | 9.6 | 0.00 | 0.00 | 0.00 | 69 | 1007.5 |
| 20260506043008 | 70 | 0 | 1.7 | 7.0 | 0.00 | 0.00 | 0.00 | 68 | 1007.5 |
| 20260506042013 | 71 | 0 | 4.3 | 13.0 | 0.00 | 0.00 | 0.00 | 67 | 1007.4 |
| 20260506041022 | 71 | 0 | 3.5 | 13.0 | 0.00 | 0.00 | 0.00 | 67 | 1007.4 |
| 20260506035950 | 71 | 0 | 3.5 | 10.4 | 0.00 | 0.00 | 0.00 | 67 | 1007.3 |
| 20260506034956 | 71 | 0 | 3.5 | 10.4 | 0.00 | 0.00 | 0.00 | 66 | 1007.3 |
| 20260506034018 | 71 | 159 | 3.5 | 9.6 | 0.00 | 0.00 | 0.00 | 66 | 1007.4 |
| 20260506033029 | 71 | 115 | 3.5 | 10.4 | 0.00 | 0.00 | 0.00 | 65 | 1007.4 |
| 20260506032001 | 72 | 124 | 2.6 | 12.2 | 0.00 | 0.00 | 0.00 | 65 | 1007.4 |
| 20260506024643 | 73 | 141 | 2.6 | 12.2 | 0.00 | 0.00 | 0.00 | 63 | 1007.2 |
| 20260506023642 | 74 | 113 | 3.5 | 9.6 | 0.00 | 0.00 | 0.00 | 62 | 1007.3 |
| 20260506021604 | 75 | 113 | 1.7 | 13.0 | 0.00 | 0.00 | 0.00 | 58 | 1007.2 |
| 20260506020625 | 75 | 110 | 1.7 | 13.0 | 0.00 | 0.00 | 0.00 | 57 | 1007.1 |
| 20260506015628 | 76 | 111 | 3.5 | 11.3 | 0.00 | 0.00 | 0.00 | 55 | 1006.9 |
| 20260506014622 | 76 | 121 | 3.5 | 11.3 | 0.00 | 0.00 | 0.00 | 54 | 1006.9 |
| 20260506013605 | 77 | 0 | 4.3 | 11.3 | 0.00 | 0.00 | 0.00 | 53 | 1006.7 |
| 20260506010259 | 78 | 116 | 3.5 | 13.0 | 0.00 | 0.00 | 0.00 | 51 | 1006.2 |
| 20260506005316 | 78 | 94 | 3.5 | 12.2 | 0.00 | 0.00 | 0.00 | 50 | 1006.3 |
| 20260506004253 | 78 | 126 | 4.3 | 12.2 | 0.00 | 0.00 | 0.00 | 49 | 1006.2 |
| 20260506003235 | 79 | 115 | 3.5 | 12.2 | 0.00 | 0.00 | 0.00 | 47 | 1005.9 |
| 20260506001027 | 80 | 118 | 4.3 | 10.4 | 0.00 | 0.00 | 0.00 | 45 | 1005.8 |
| 20260506000010 | 80 | 132 | 4.3 | 14.8 | 0.00 | 0.00 | 0.00 | 44 | 1005.6 |
| 20260505235007 | 80 | 132 | 4.3 | 14.8 | 0.00 | 0.00 | 0.00 | 44 | 1005.7 |
| 20260505233934 | 80 | 136 | 5.2 | 13.0 | 0.00 | 0.00 | 0.00 | 43 | 1005.5 |
| 20260505232934 | 81 | 168 | 3.5 | 13.0 | 0.00 | 0.00 | 0.00 | 42 | 1005.4 |
| 20260505231945 | 81 | 140 | 4.3 | 11.3 | 0.00 | 0.00 | 0.00 | 41 | 1005.3 |
| 20260505231004 | 81 | 139 | 7.0 | 13.9 | 0.00 | 0.00 | 0.00 | 41 | 1005.2 |
| 20260505230028 | 82 | 124 | 6.1 | 13.9 | 0.00 | 0.00 | 0.00 | 40 | 1005.0 |
| 20260505225036 | 82 | 173 | 7.8 | 14.8 | 0.00 | 0.00 | 0.00 | 40 | 1005.0 |
| 20260505222912 | 83 | 145 | 5.2 | 17.4 | 0.00 | 0.00 | 0.00 | 40 | 1004.8 |
| 20260505221917 | 83 | 107 | 7.8 | 20.0 | 0.00 | 0.00 | 0.00 | 39 | 1004.8 |
| 20260505220912 | 83 | 109 | 7.0 | 22.6 | 0.00 | 0.00 | 0.00 | 39 | 1004.6 |
| 20260505215936 | 83 | 205 | 8.7 | 22.6 | 0.00 | 0.00 | 0.00 | 39 | 1004.7 |
| 20260505214902 | 83 | 131 | 5.2 | 17.4 | 0.00 | 0.00 | 0.00 | 40 | 1004.6 |
| 20260505213830 | 83 | 127 | 7.8 | 21.7 | 0.00 | 0.00 | 0.00 | 40 | 1004.4 |
| 20260505212856 | 83 | 140 | 9.6 | 21.7 | 0.00 | 0.00 | 0.00 | 39 | 1004.2 |
| 20260505211904 | 84 | 128 | 8.7 | 20.9 | 0.00 | 0.00 | 0.00 | 40 | 1004.3 |
| 20260505210905 | 84 | 137 | 8.7 | 18.2 | 0.00 | 0.00 | 0.00 | 40 | 1004.2 |
| 20260505203618 | 86 | 111 | 7.0 | 15.6 | 0.00 | 0.00 | 0.00 | 39 | 1004.3 |
| 20260505202555 | 85 | 105 | 8.7 | 20.0 | 0.00 | 0.00 | 0.00 | 39 | 1004.4 |
| 20260505201534 | 86 | 112 | 7.8 | 20.0 | 0.00 | 0.00 | 0.00 | 38 | 1004.5 |
| 20260505200530 | 86 | 98 | 7.8 | 19.1 | 0.00 | 0.00 | 0.00 | 38 | 1004.5 |
| 20260505195539 | 86 | 170 | 7.8 | 23.5 | 0.00 | 0.00 | 0.00 | 39 | 1004.5 |
| 20260505194512 | 86 | 110 | 8.7 | 23.5 | 0.00 | 0.00 | 0.00 | 39 | 1004.5 |
| 20260505193456 | 87 | 99 | 7.0 | 21.7 | 0.00 | 0.00 | 0.00 | 40 | 1004.7 |
| 20260505192436 | 87 | 106 | 7.0 | 21.7 | 0.00 | 0.00 | 0.00 | 39 | 1005.0 |
| 20260505191456 | 86 | 103 | 7.8 | 18.2 | 0.00 | 0.00 | 0.00 | 40 | 1005.1 |
| 20260505190446 | 86 | 80 | 8.7 | 21.7 | 0.00 | 0.00 | 0.00 | 39 | 1005.1 |
| 20260505185441 | 87 | 112 | 7.0 | 21.7 | 0.00 | 0.00 | 0.00 | 41 | 1005.2 |
| 20260505184413 | 87 | 101 | 7.0 | 20.9 | 0.00 | 0.00 | 0.00 | 41 | 1005.5 |
| 20260505183358 | 87 | 144 | 7.0 | 20.9 | 0.00 | 0.00 | 0.00 | 42 | 1005.7 |
| 20260505182407 | 87 | 171 | 7.0 | 18.2 | 0.00 | 0.00 | 0.00 | 43 | 1005.6 |
| 20260505181346 | 87 | 100 | 6.1 | 18.2 | 0.00 | 0.00 | 0.00 | 44 | 1005.6 |
| 20260505180402 | 87 | 99 | 7.8 | 18.2 | 0.00 | 0.00 | 0.00 | 43 | 1005.7 |
| 20260505173159 | 85 | 115 | 7.0 | 17.4 | 0.00 | 0.00 | 0.00 | 46 | 1006.1 |
| 20260505172209 | 86 | 105 | 5.2 | 17.4 | 0.00 | 0.00 | 0.00 | 46 | 1006.4 |
| 20260505171221 | 86 | 118 | 3.5 | 13.0 | 0.00 | 0.00 | 0.00 | 47 | 1006.5 |
| 20260505165123 | 84 | 105 | 5.2 | 13.0 | 0.00 | 0.00 | 0.00 | 49 | 1006.7 |
| 20260505164115 | 83 | 106 | 4.3 | 10.4 | 0.00 | 0.00 | 0.00 | 50 | 1006.8 |
| 20260505163115 | 83 | 119 | 3.5 | 10.4 | 0.00 | 0.00 | 0.00 | 50 | 1006.9 |
| 20260505162045 | 83 | 126 | 4.3 | 10.4 | 0.00 | 0.00 | 0.00 | 51 | 1007.1 |
| 20260505161102 | 82 | 130 | 2.6 | 11.3 | 0.00 | 0.00 | 0.00 | 51 | 1007.3 |
| 20260505153023 | 80 | 105 | 3.5 | 10.4 | 0.00 | 0.00 | 0.00 | 55 | 1007.9 |
| 20260505124341 | 66 | 98 | 1.7 | 7.0 | 0.00 | 0.00 | 0.00 | 77 | 1008.1 |
| 20260505123310 | 64 | 119 | 0.9 | 7.0 | 0.00 | 0.00 | 0.00 | 85 | 1008.2 |